Weather History for Ainsworth, NE

Change the Weather History Date:

Saturday, June 29, 2013

  Actual Average Record
Temperature  
Mean Temperature 70 °F -  
Max Temperature 81 °F 80 °F 102 °F (2002)
Min Temperature 60 °F 57 °F 46 °F (2000)
Cooling Degree Days 6    
Growing Degree Days 20 (Base 50)    
Moisture  
Dew Point 50 °F    
Average Humidity 51    
Maximum Humidity 76    
Minimum Humidity 26    
Precipitation  
Precipitation 0.00 in - - ()
Sea Level Pressure  
Sea Level Pressure 30.11 in    
Wind  
Wind Speed 9 mph (NNW)    
Max Wind Speed 20 mph    
Max Gust Speed 28 mph    
Visibility 10 miles    
Events      
Averages and records for this station are not official NWS values.
T = Trace of Precipitation, MM = Missing Value Source: NWS Daily Summary

Daily Weather History Graph

Daily Weather History Graph

Search for Another Location

Airport:

Trip Planner

Search our weather history database for the weather conditions in past years. The results will help you decide how hot, cold, wet, or windy it might be!

Date:

Astronomy

Jun. 29, 2013 Rise Set
Actual Time 6:05 AM CDT 9:21 PM CDT
Civil Twilight 5:30 AM CDT 9:56 PM CDT
Nautical Twilight 4:45 AM CDT 10:41 PM CDT
Astronomical Twilight 3:50 AM CDT 11:36 PM CDT
Moon 12:42 AM CDT (6/29) 1:28 PM CDT (6/29)
Length of Visible Light 16h 25m
Length of Day
15h 16m
Waning Gibbous, 55% of the Moon is Illuminated
Jun 29
Waning Gibbous
Jun 29
Last Quarter
Jul 8
New
Jul 15
First Quarter
Jul 22
Full

Hourly Weather History & Observations

Time (CDT) Temp. Dew Point Humidity Pressure Visibility Wind Dir Wind Speed Gust Speed Precip Events Conditions
12:15 AM 67.6 °F 52.2 °F 58% 30.10 in 10.0 mi NW 3.5 mph - N/A   Clear
12:35 AM 66.0 °F 52.9 °F 63% 30.10 in 10.0 mi NW 3.5 mph - N/A   Clear
12:55 AM 64.8 °F 52.9 °F 65% 30.10 in 10.0 mi WNW 3.5 mph - N/A   Clear
1:15 AM 63.5 °F 52.9 °F 68% 30.10 in 10.0 mi West 3.5 mph - N/A   Clear
1:35 AM 63.0 °F 52.7 °F 69% 30.10 in 10.0 mi West 5.8 mph - N/A   Clear
1:55 AM 62.4 °F 52.7 °F 70% 30.10 in 10.0 mi West 5.8 mph - N/A   Clear
2:15 AM 61.7 °F 52.7 °F 72% 30.10 in 10.0 mi West 5.8 mph - N/A   Clear
2:35 AM 61.2 °F 52.7 °F 74% 30.10 in 10.0 mi West 5.8 mph - N/A   Clear
2:55 AM 60.3 °F 52.5 °F 76% 30.11 in 10.0 mi West 5.8 mph - N/A   Scattered Clouds
3:15 AM 61.3 °F 52.7 °F 73% 30.11 in 10.0 mi West 6.9 mph - N/A   Scattered Clouds
3:35 AM 61.2 °F 52.9 °F 74% 30.11 in 10.0 mi West 5.8 mph - N/A   Scattered Clouds
3:55 AM 60.8 °F 52.9 °F 75% 30.11 in 10.0 mi West 6.9 mph - N/A   Scattered Clouds
4:15 AM 61.7 °F 53.1 °F 73% 30.11 in 10.0 mi WNW 6.9 mph - N/A   Scattered Clouds
4:35 AM 61.0 °F 53.1 °F 75% 30.11 in 10.0 mi West 5.8 mph - N/A   Scattered Clouds
4:55 AM 61.7 °F 53.1 °F 73% 30.11 in 10.0 mi WNW 5.8 mph - N/A   Clear
5:15 AM 61.7 °F 52.9 °F 73% 30.11 in 10.0 mi NW 4.6 mph - N/A   Clear
5:35 AM 62.8 °F 52.7 °F 70% 30.11 in 10.0 mi NW 6.9 mph - N/A   Scattered Clouds
5:55 AM 63.5 °F 53.1 °F 69% 30.12 in 10.0 mi NW 6.9 mph - N/A   Overcast
6:15 AM 64.0 °F 53.2 °F 68% 30.11 in 10.0 mi NW 5.8 mph - N/A   Overcast
6:35 AM 64.0 °F 53.6 °F 69% 30.12 in 10.0 mi NW 6.9 mph - N/A   Mostly Cloudy
6:55 AM 64.4 °F 53.6 °F 68% 30.11 in 10.0 mi NW 5.8 mph - N/A   Scattered Clouds
7:15 AM 65.5 °F 54.0 °F 66% 30.12 in 10.0 mi NW 5.8 mph - N/A   Scattered Clouds
7:35 AM 67.3 °F 54.3 °F 63% 30.12 in 10.0 mi NNW 10.4 mph - N/A   Mostly Cloudy
7:55 AM 69.1 °F 54.5 °F 60% 30.12 in 10.0 mi NNW 12.7 mph - N/A   Mostly Cloudy
8:15 AM 70.7 °F 52.9 °F 53% 30.13 in 10.0 mi NNW 13.8 mph - N/A   Mostly Cloudy
8:35 AM 70.9 °F 52.7 °F 53% 30.13 in 10.0 mi North 13.8 mph 17.3 mph N/A   Scattered Clouds
8:55 AM 70.7 °F 52.0 °F 51% 30.13 in 10.0 mi North 15.0 mph - N/A   Clear
9:15 AM 71.2 °F 52.5 °F 52% 30.13 in 10.0 mi North 12.7 mph 17.3 mph N/A   Clear
9:35 AM 72.0 °F 52.5 °F 50% 30.14 in 10.0 mi North 18.4 mph - N/A   Clear
9:55 AM 72.1 °F 53.1 °F 51% 30.14 in 10.0 mi North 13.8 mph - N/A   Clear
10:15 AM 72.7 °F 53.2 °F 50% 30.13 in 10.0 mi North 12.7 mph 19.6 mph N/A   Clear
10:35 AM 73.6 °F 50.4 °F 44% 30.13 in 10.0 mi North 12.7 mph - N/A   Clear
10:55 AM 74.7 °F 46.0 °F 36% 30.13 in 10.0 mi North 16.1 mph 24.2 mph N/A   Clear
11:15 AM 75.4 °F 45.9 °F 35% 30.13 in 10.0 mi North 16.1 mph - N/A   Clear
11:35 AM 76.1 °F 44.4 °F 32% 30.13 in 10.0 mi North 17.3 mph 21.9 mph N/A   Clear
11:55 AM 77.0 °F 42.1 °F 29% 30.13 in 10.0 mi North 16.1 mph 21.9 mph N/A   Clear
12:15 PM 77.4 °F 42.8 °F 29% 30.13 in 10.0 mi North 16.1 mph 21.9 mph N/A   Clear
12:35 PM 78.1 °F 46.2 °F 32% 30.13 in 10.0 mi North 16.1 mph 21.9 mph N/A   Clear
12:55 PM 77.9 °F 45.5 °F 32% 30.13 in 10.0 mi North 12.7 mph 26.5 mph N/A   Scattered Clouds
1:15 PM 78.1 °F 46.2 °F 32% 30.12 in 10.0 mi North 17.3 mph 23.0 mph N/A   Scattered Clouds
1:35 PM 78.8 °F 43.3 °F 28% 30.12 in 10.0 mi NNW 13.8 mph 24.2 mph N/A   Scattered Clouds
1:55 PM 77.5 °F 44.4 °F 31% 30.11 in 10.0 mi NNW 15.0 mph 26.5 mph N/A   Scattered Clouds
2:15 PM 79.0 °F 44.8 °F 30% 30.11 in 10.0 mi North 13.8 mph 25.3 mph N/A   Scattered Clouds
2:35 PM 79.3 °F 44.4 °F 29% 30.11 in 10.0 mi NNW 17.3 mph 26.5 mph N/A   Scattered Clouds
2:55 PM 77.5 °F 44.2 °F 31% 30.11 in 10.0 mi North 19.6 mph 26.5 mph N/A   Scattered Clouds
3:15 PM 80.1 °F 44.2 °F 28% 30.10 in 10.0 mi North 18.4 mph 25.3 mph N/A   Scattered Clouds
3:35 PM 77.7 °F 45.0 °F 31% 30.10 in 10.0 mi North 16.1 mph 26.5 mph N/A   Scattered Clouds
3:55 PM 79.3 °F 45.0 °F 30% 30.10 in 10.0 mi NNW 17.3 mph 24.2 mph N/A   Scattered Clouds
4:15 PM 80.1 °F 45.0 °F 29% 30.09 in 10.0 mi NNW 16.1 mph 23.0 mph N/A   Scattered Clouds
4:35 PM 79.0 °F 44.2 °F 29% 30.08 in 10.0 mi North 18.4 mph 25.3 mph N/A   Scattered Clouds
4:55 PM 81.0 °F 43.0 °F 26% 30.08 in 10.0 mi North 18.4 mph 25.3 mph N/A   Scattered Clouds
5:15 PM 80.6 °F 43.2 °F 27% 30.08 in 10.0 mi North 18.4 mph 26.5 mph N/A   Scattered Clouds
5:35 PM 77.9 °F 41.4 °F 27% 30.08 in 10.0 mi NNW 19.6 mph 27.6 mph N/A   Scattered Clouds
5:55 PM 77.0 °F 44.4 °F 31% 30.08 in 10.0 mi North 18.4 mph 23.0 mph N/A   Scattered Clouds
6:15 PM 78.6 °F 47.1 °F 33% 30.07 in 10.0 mi NNE 13.8 mph 19.6 mph N/A   Clear
6:35 PM 78.6 °F 48.0 °F 34% 30.07 in 10.0 mi North 12.7 mph 18.4 mph N/A   Mostly Cloudy
6:55 PM 77.7 °F 50.0 °F 38% 30.07 in 10.0 mi NNE 11.5 mph 19.6 mph N/A   Scattered Clouds
7:15 PM 77.5 °F 48.4 °F 36% 30.07 in 10.0 mi North 10.4 mph - N/A   Clear
7:35 PM 77.0 °F 48.6 °F 37% 30.07 in 10.0 mi North 9.2 mph - N/A   Clear
7:55 PM 76.3 °F 49.1 °F 38% 30.07 in 10.0 mi NNE 12.7 mph 20.7 mph N/A   Clear
8:15 PM 75.2 °F 49.1 °F 40% 30.07 in 10.0 mi NNE 9.2 mph - N/A   Clear
8:35 PM 73.2 °F 52.2 °F 48% 30.07 in 10.0 mi NE 8.1 mph - N/A   Clear
8:55 PM 71.4 °F 52.7 °F 52% 30.07 in 10.0 mi NE 8.1 mph - N/A   Clear
9:15 PM 70.0 °F 52.2 °F 53% 30.08 in 10.0 mi NNE 6.9 mph - N/A   Clear
9:35 PM 66.9 °F 53.2 °F 61% 30.08 in 10.0 mi NE 5.8 mph - N/A   Clear
9:55 PM 64.9 °F 53.8 °F 67% 30.08 in 10.0 mi NE 5.8 mph - N/A   Clear
10:15 PM 64.2 °F 53.6 °F 68% 30.10 in 10.0 mi NE 6.9 mph - N/A   Clear
10:35 PM 63.1 °F 53.8 °F 71% 30.10 in 10.0 mi NE 6.9 mph - N/A   Clear
10:55 PM 62.8 °F 53.8 °F 72% 30.11 in 10.0 mi NE 4.6 mph - N/A   Clear
11:15 PM 63.0 °F 53.6 °F 71% 30.11 in 10.0 mi NE 5.8 mph - N/A   Clear
11:35 PM 63.5 °F 53.6 °F 70% 30.11 in 10.0 mi NNE 3.5 mph - N/A   Clear
11:55 PM 63.1 °F 53.8 °F 71% 30.11 in 10.0 mi Calm Calm - N/A   Clear